Tracking 25710 objects as of 6-Jul-2022
HD Live streaming from Space Station
objects crossing your sky now

FENGYUN 1C DEB

Track FENGYUN 1C DEB now!
10-day predictions


NORAD ID: 32153
Int'l Code: 1999-025CSX
Perigee: 595.1 km
Apogee: 913.1 km
Inclination: 98.7 °
Period: 99.8 minutes
Semi major axis: 7125 km
RCS: 0.0005 m2 (small)
Launch date: May 10, 1999
Source: People's Republic of China (PRC)
Launch site: Taiyaun Space Center, China (TSC)

Note: This is SATELLITE DEBRIS
aabbcc
Your satellite tracking list
Your tracking list is empty




NASA's NSSDC Master Catalog

Two Line Element Set (TLE):
1 32153U 99025CSX 22186.65738995  .00000251  00000-0  67518-4 0  9999
2 32153  98.7047 330.9984 0223214  33.9871 327.5390 14.43498243790728
Source of the keplerian elements: AFSPC